{"data":{"norad_id":66969,"intl_designator":"2025-288L","name":"STARLINK-36149","alt_names":[],"object_type":"PAYLOAD","status":"ACTIVE","operator":null,"country":"US","launch_date":"2025-12-08","launch_site_code":"AFETR","launch_vehicle":null,"mission":null,"orbit_class":"UNKNOWN","rcs_meters":null,"size_class":null,"mass_kg":null,"dimensions":null,"purposes":["comms"],"wikipedia_slug":null,"has_3d_model":false,"image_url":null,"decayed_at":null,"tle_current":{"epoch":"2026-09-20T08:19:22.115136Z","epoch_age_seconds":94554,"freshness":"FRESH","line1":"1 66969U 25288L   26263.34678374  .00018277  00000+0  67176-3 0  9996","line2":"2 66969  43.0020   4.4817 0001197 259.3227 100.7490 15.27594859 45059","mean_motion":15.27594859,"eccentricity":0.0001197,"inclination_deg":43.002,"raan_deg":4.4817,"arg_perigee_deg":259.3227,"mean_anomaly_deg":100.749,"bstar":0.00067176,"rev_number":4505,"period_min":94.265831775754,"perigee_km":482.18332455891,"apogee_km":483.82588185872,"semimajor_km":6861.1416032088,"source":"CELESTRAK","updated_at":"2026-09-21T09:00:36.064045Z"}}}